Regional Weather Roundup
Issued by NWS

Home | Current Version | Previous Version | Graphics & Text | Print | Product List | Glossary Off
Versions: 1 2 3 4 5 6 7 8 9 10 11 12 13 14 15 16 17 18 19 20 21 22 23 24 25 26 27 28 29 30 31 32 33 34 35 36 37 38 39 40 41 42 43 44 45 46 47 48 49 50

000
ASUS43 KMPX 150010
RWRMN
WEATHER ROUNDUP FOR MINNESOTA
NATIONAL WEATHER SERVICE TWIN CITIES/CHANHASSEN MN
700 PM CDT SUN SEP 14 2014


NOTE: "FAIR" INDICATES FEW OR NO CLOUDS BELOW 12,000 FEET WITH NO
SIGNIFICANT WEATHER AND/OR OBSTRUCTIONS TO VISIBILITY. N/A MEANS
CURRENT SKY AND/OR WEATHER CONDITIONS ARE NOT AVAILABLE.

MNZ060>063-068>070-150100-
   Twin Cities Metro

CITY           SKY/WX    TMP DP  RH WIND       PRES   REMARKS
TWIN CITIES    CLOUDY    59  40  49 NW6       30.11S
6HR MIN TEMP:  59; 6HR MAX TEMP:  65;

ST PAUL        MOCLDY    59  40  49 NW10      30.12R
CRYSTAL        MOCLDY    60  41  49 W6        30.11S
BLAINE         MOCLDY    61  45  55 W7        30.11S
LAKEVILLE      CLOUDY    55  43  62 W5        30.12S
EDEN PRAIRIE   MOCLDY    58  42  55 W5        30.11R
6HR MIN TEMP:  58; 6HR MAX TEMP:  66;

SOUTH ST PAUL  MOCLDY    60  39  45 W3        30.11S
LAKE ELMO      FAIR      55  43  62 W5        30.12S
$$
MNZ001>005-007-008-013>017-022>024-027-028-150100-
   Northwest Minnesota

CITY           SKY/WX    TMP DP  RH WIND       PRES   REMARKS
BEMIDJI        MOCLDY    50  43  76 W6        30.10S
HALLOCK        PTCLDY    54  37  54 NW10      30.10R
ROSEAU         CLOUDY    54  45  71 NW8       30.08S
WARROAD        CLOUDY    52  45  76 N5        30.08R
THIEF RVR FALL CLOUDY    54  41  62 NW9       30.10S
CROOKSTON      CLOUDY    54  45  71 NW5       30.12R
FOSSTON        CLOUDY    52  43  71 CALM      30.11S
DETROIT LAKES  MOCLDY    54  43  66 N3        30.12F
MOORHEAD       CLOUDY    55  45  67 N5        30.13S
PARK RAPIDS    PTCLDY    51  41  68 W3        30.11S
MAHNOMEN       MOCLDY    51  42  72 W5        30.11S
$$
MNZ006-009>011-018-025>026-150100-
   North Central Minnesota

CITY           SKY/WX    TMP DP  RH WIND       PRES   REMARKS
BAUDETTE       CLOUDY    50  45  83 VRB3      30.06R
FLAG ISLAND    MOCLDY    50  45  81 NW15      30.05R
INTL FALLS     MOCLDY    52  45  77 CALM      30.03R
6HR MIN TEMP:  50; 6HR MAX TEMP:  58; 6HR PCP:  0.05;

WASKISH        PTCLDY    52  45  76 W12       30.08R
BIG FORK       PTCLDY    55  43  62 SW8       30.06R
LONGVILLE      CLOUDY    52  45  76 W6        30.10R
GRAND RAPIDS   CLOUDY    52  43  71 SW5       30.08R
CRANE LAKE     CLOUDY    52  43  71 CALM      30.05R
ORR            PTCLDY    52  45  76 CALM      30.02S
COOK           CLEAR     52  45  76 CALM      30.05R
WALKER         FAIR      49  43  77 W3        30.10S
$$
MNZ012-019>021-037-150100-
   Northeast Minnesota

CITY           SKY/WX    TMP DP  RH WIND       PRES   REMARKS
DULUTH         PTCLDY    53  41  63 W10       30.07R
6HR MIN TEMP:  53; 6HR MAX TEMP:  59;

ELY            PTCLDY    48  45  87 W5        30.03R
HIBBING        LGT RAIN  51  46  83 CALM      30.06R
EVELETH        CLEAR     50  45  81 W3        30.06S
DULUTH HARBOR  PTCLDY    57  45  62 W9        30.07S
TWO HARBORS    CLOUDY    54  41  62 NW5       30.04R
SILVER BAY     CLEAR     48  45  87 CALM      30.04R
GRAND MARAIS     N/A     53  46  77 VRB3      30.00R
G MARAIS ARPRT PTCLDY    46  39  76 W5        30.00R
$$
MNZ029>031-032-039>041-046>048-054>057-064-150100-
   West Central Minnesota

CITY           SKY/WX    TMP DP  RH WIND       PRES   REMARKS
FERGUS FALLS   CLOUDY    55  43  62 CALM      30.12S
WHEATON        CLOUDY    54  43  66 CALM      30.14S
MORRIS         MOCLDY    57  41  54 W5        30.11F
ALEXANDRIA     MOCLDY    54  43  66 W3        30.13S
ELBOW LAKE     CLOUDY    54  45  72 W5        30.12S
WADENA         MOCLDY    52  45  76 CALM      30.12S
GLENWOOD       MOCLDY    54  43  66 NW3       30.13F
APPLETON       MOCLDY    59  45  58 N5        30.12S
BENSON         MOCLDY    54  45  71 NE7       30.13S
ORTONVILLE     PTCLDY    55  45  67 N6        30.12S
MADISON        MOCLDY    59  48  67 N3        30.12S
WILLMAR        FAIR      57  45  62 W3        30.14S
$$
MNZ033>034-036-042>043-049>051-058-059-150100-
   Central Minnesota

CITY           SKY/WX    TMP DP  RH WIND       PRES   REMARKS
ST CLOUD       MOCLDY    57  43  59 NW8       30.12S
6HR MIN TEMP:  57; 6HR MAX TEMP:  63;

SAUK CENTRE    FAIR      54  42  64 NW5       30.13S
PAYNESVILLE    MOCLDY    52  42  67 NW7       30.13S
AITKIN         CLOUDY    55  45  67 CALM      30.09S
PINE RIVER     CLOUDY    52  45  76 CALM      30.14S
BRAINERD       CLOUDY    52  43  71 W6        30.12R
STAPLES        CLOUDY    52  43  71 W3        30.12S
LONG PRAIRIE   FAIR      52  41  66 CALM      30.13S
LITTLE FALLS   MOCLDY    54  41  62 NW3       30.12S
LITCHFIELD       N/A     55  46  71 CALM      30.13S
BUFFALO        MOCLDY    57  42  57 W5        30.13R
MAPLE LAKE     MOCLDY    56  46  67 W3        30.13S
$$
MNZ037-044-045-052-053-150100-
   East Central Minnesota

CITY           SKY/WX    TMP DP  RH WIND       PRES   REMARKS
PRINCETON      MOCLDY    57  45  62 CALM      30.12S
MORA           MOCLDY    54  43  66 CALM      30.12F
CAMBRIDGE      MOCLDY    59  45  58 W3        30.09S
RUSH CITY      MOCLDY    56  45  66 CALM      30.11S
MOOSE LAKE     CLOUDY    54  43  66 CALM      30.08R
HINCKLEY       CLOUDY    54  43  66 W5        30.11R
CLOQUET        PTCLDY    54  43  66 W5        30.08R
MCGREGOR       MOCLDY    54  45  71 W3        30.10R
$$
MNZ071>073-080-081-089-090-097-098-150100-
   Southwest Minnesota

CITY           SKY/WX    TMP DP  RH WIND       PRES   REMARKS
MONTEVIDEO     CLOUDY    57  46  67 CALM      30.13S
GRANITE FALLS  CLOUDY    55  47  72 CALM      30.14S
CANBY          LGT RAIN  55  46  73 SW5       30.14R
MARSHALL       CLOUDY    52  45  76 SW6       30.13R
REDWOOD FALLS  LGT RAIN  57  43  59 W5        30.13R
OLIVIA         CLOUDY    55  45  67 CALM      30.12S
PIPESTONE      CLOUDY    55  43  62 NE6       30.13R
WINDOM         MOCLDY    57  43  58 N7        30.13R
WORTHINGTON    CLOUDY    57  43  58 N7        30.13R
JACKSON        MOCLDY    61  43  51 N8        30.12R
TRACY          CLOUDY    53  46  77 CALM      30.14R
SLAYTON        CLOUDY    54  43  66 CALM      30.13S
$$
MNZ065>067-074>077-082>085-091>093-150100-
   South Central Minnesota

CITY           SKY/WX    TMP DP  RH WIND       PRES   REMARKS
MANKATO        CLOUDY    55  45  67 W3        30.13S
NEW ULM          N/A     55  52  88 CALM      30.12F
ST JAMES       CLOUDY    57  45  62 CALM      30.13S
FAIRMONT       CLOUDY    61  43  51 N9        30.11S
GLENCOE        CLOUDY    57  41  54 NW5       30.12S
FARIBAULT      CLOUDY    61  43  51 NW3       30.13R
OWATONNA       LGT RAIN  55  48  76 W3        30.13R
WASECA         LGT RAIN  52  43  71 NW7       30.13S
ALBERT LEA     MOCLDY    61  48  63 CALM      30.12R
$$
MNZ078>079-086>088-094>096-150100-
   Southeast Minnesota

CITY           SKY/WX    TMP DP  RH WIND       PRES   REMARKS
ROCHESTER      MOCLDY    60  48  64 NW6       30.12S
6HR MIN TEMP:  60; 6HR MAX TEMP:  69;

RED WING       CLOUDY    61  37  41 NW3       30.10S
STANTON        CLOUDY    59  41  51 CALM      30.11R
DODGE CENTER   MOCLDY    61  46  59 NW7       30.13R
WINONA         MOCLDY    63  46  55 NW3       30.10S
AUSTIN         MOCLDY    61  48  63 NW5       30.11S
PRESTON        MOCLDY    60  55  84 W5        30.12R
$$
ABBREVIATIONS USED IN REMARKS
   TC - TEMPERATURES IN CELSIUS
  WCI - WIND CHILL INDEX
   HX - HEAT INDEX
  VSB - VISIBILITY
$$



USA.gov is the U.S. government's official web portal to all federal, state and local government web resources and services.